OPS 4682 DEB, 38454

Orbit data source: Space-Track

OPS 4682 DEB, 38454 is space debris in LEO originally from a launch on Sat, 03 Apr 1965 UTC launched from the Air Force Western Test Range (AFWTR). Debris objects in space refer to the collection of defunct objects orbiting the Earth. Examples of debris include non-operational satellites, rocket bodies, and fragments generated from explosions, collisions, or faulty payload assembly.

Loading next visibility...
Identifier
38454, 1965-027FK
Orbit
LEO
Country
Flag of USUS
Related business
Manufacturer
Unknown
Mission
Spacecraft
Bus & Motor
Unknown
Mass
Unknown
Launch date (UTC)
1965-04-03 (61 years ago)
Launch vehicle
Unknown
Launch site
Air Force Western Test Range (AFWTR)
Object type
Payload
Rocket body
Debris
Shape & HBR
Unknown shape, 0.1 m
Radar Cross Section
Small (<0.1 m²)

Expand to show TLE details & history
Last TLE update: 2 days ago

TLE from 2 days ago
0 OPS 4682 DEB
1 38454U 65027FK  26130.41125458  .00000598  00000-0  20962-2 0  9999
2 38454  90.2436   6.2332 0033530 318.4939  41.3635 12.95309885577716
Epoch: 2026-05-10T09:52Z
TLE epoch observation values (Epoch: 2026-05-10T09:52:12.395Z)
Latitude
-0.00001°
Longitude
-10.03317°
Altitude
1,264.156 km
Speed
7.232 km/s
True Right ascension
00h 24m 55s
True Declination
0° 00' 00"
Sunlit
Object was in daylight at epoch
Visualization orbit readout
Latitude
Unknown
Longitude
Unknown
Altitude
Unknown
Speed
Unknown
Apparent Right ascension
Unknown
Apparent Declination
Unknown
Sunlit
N/A
Visualization observer readout
Local Sidereal Time
18:14:20
Azimuth
Unknown
Elevation
Unknown
Doppler factor
Unknown
Orbital elements
Apogee altitude
1,303.322 km
Perigee altitude
1,251.982 km
Semi-major axis
7,655.789 km
Eccentricity
0.00335
Inclination
90.2436°
RAAN
6.2332°
Arg. of periapsis
318.4939°
True anomaly
41.61821°
Mean anomaly
41.3635°
Eccentric anomaly
41.49077°
Mean motion
3.2401 °/min
Orbital period
111.11 mins
BSTAR
0.0020962
Loading maneuver chart data...
Computing Atmospheric mass density...
Loading historical data...
Loading historical data...
Loading historical data...
Loading historical data...
Loading historical data...
Loading historical data...
Loading historical data...

Documentation

Showing up to 5 results
|